When you browse on this site, cookies collect data to enhance your experience and personalize the content and advertising you see.
Visit our Privacy Policy to learn more. By continuing to use the site, you agree to this use of cookies and data.
  • In Hungary
  • List of Countries
  • For 7 days
  • Water Temperature
  • Satellite Maps
  • Weather Map
  • News
  • Weather Widgets
  • user-avatar
    Login

    Hourly Weather Uygursoy

    Today, 18 December, Tuesday

    Time Temperature Precipitation Wind Pressure Humidity
    00:00 +8°C° 0.2 mm 1 mps 715 mmHg 62%
    01:00 +6°C° 0.2 mm 2 mps 715 mmHg 63%
    02:00 +6°C° 0.2 mm 2 mps 715 mmHg 64%
    03:00 +6°C° 0.4 mm 2 mps 715 mmHg 67%
    04:00 +6°C° 0.4 mm 2 mps 715 mmHg 69%
    05:00 +6°C° 0 mm 1 mps 715 mmHg 71%
    06:00 +5°C° 0.1 mm 2 mps 715 mmHg 72%
    07:00 +5°C° 0.1 mm 2 mps 716 mmHg 73%
    08:00 +5°C° 0.1 mm 2 mps 716 mmHg 74%
    09:00 +6°C° 0.1 mm 2 mps 716 mmHg 72%
    10:00 +5°C° 0.1 mm 3 mps 716 mmHg 69%
    11:00 +7°C° 0 mm 3 mps 715 mmHg 66%
    12:00 +7°C° 0.1 mm 2 mps 715 mmHg 67%
    13:00 +7°C° 0.1 mm 2 mps 715 mmHg 67%
    14:00 +7°C° 0.1 mm 2 mps 715 mmHg 67%
    15:00 +7°C° 0.2 mm 2 mps 715 mmHg 71%
    16:00 +6°C° 0.2 mm 2 mps 715 mmHg 75%
    17:00 +7°C° 0 mm 1 mps 715 mmHg 77%
    18:00 +6°C° 0.2 mm 2 mps 715 mmHg 78%
    19:00 +6°C° 0.2 mm 2 mps 714 mmHg 79%
    20:00 +5°C° 0.2 mm 2 mps 714 mmHg 81%
    21:00 +5°C° 0.3 mm 2 mps 714 mmHg 81%
    22:00 +6°C° 0.3 mm 1 mps 713 mmHg 82%
    23:00 +6°C° 0.3 mm 1 mps 713 mmHg 83%

    Tomorrow, 19 December, Wednesday

    Time Temperature Precipitation Wind Pressure Humidity
    00:00 +6°C° 0.3 mm 1 mps 713 mmHg 83%
    01:00 +6°C° 0.3 mm 1 mps 713 mmHg 84%
    02:00 +6°C° 0.3 mm 1 mps 713 mmHg 85%
    03:00 +6°C° 0.4 mm 1 mps 713 mmHg 86%
    04:00 +6°C° 0.4 mm 1 mps 712 mmHg 86%
    05:00 +5°C° 0.4 mm 0 mps 712 mmHg 87%
    06:00 +6°C° 0.5 mm 1 mps 712 mmHg 87%
    07:00 +6°C° 0.5 mm 1 mps 713 mmHg 88%
    08:00 +6°C° 0.5 mm 1 mps 713 mmHg 88%
    09:00 +6°C° 0.4 mm 1 mps 713 mmHg 87%
    10:00 +6°C° 0.4 mm 1 mps 713 mmHg 86%
    11:00 +7°C° 0.4 mm 1 mps 713 mmHg 85%
    12:00 +7°C° 0.3 mm 1 mps 713 mmHg 85%
    13:00 +6°C° 0.3 mm 2 mps 713 mmHg 85%
    14:00 +6°C° 0.3 mm 2 mps 713 mmHg 85%
    15:00 +6°C° 0.3 mm 2 mps 714 mmHg 86%
    16:00 +6°C° 0.3 mm 2 mps 714 mmHg 86%
    17:00 +6°C° 0.3 mm 2 mps 715 mmHg 87%
    18:00 +6°C° 0.3 mm 2 mps 715 mmHg 86%
    19:00 +5°C° 0.3 mm 3 mps 716 mmHg 86%
    20:00 +4°C° 0.3 mm 3 mps 716 mmHg 85%
    21:00 +4°C° 0.2 mm 3 mps 717 mmHg 83%
    22:00 +4°C° 0.2 mm 3 mps 717 mmHg 82%
    23:00 +4°C° 0.2 mm 3 mps 717 mmHg 81%

    Day after tomorrow, 20 December, Thursday

    Time Temperature Precipitation Wind Pressure Humidity
    00:00 +4°C° 0.2 mm 3 mps 717 mmHg 80%
    01:00 +4°C° 0.2 mm 3 mps 718 mmHg 80%
    02:00 +4°C° 0.2 mm 3 mps 718 mmHg 79%
    03:00 +3°C° 0.2 mm 3 mps 718 mmHg 79%
    04:00 +3°C° 0.2 mm 3 mps 719 mmHg 78%
    05:00 +3°C° 0.2 mm 3 mps 719 mmHg 78%
    06:00 +3°C° 0.1 mm 3 mps 719 mmHg 78%
    07:00 +3°C° 0.1 mm 3 mps 720 mmHg 79%
    08:00 +4°C° 0.1 mm 2 mps 720 mmHg 79%
    09:00 +4°C° 0.2 mm 2 mps 720 mmHg 78%
    10:00 +4°C° 0.2 mm 2 mps 720 mmHg 76%
    11:00 +5°C° 0.2 mm 2 mps 720 mmHg 75%
    12:00 +5°C° 0.2 mm 2 mps 720 mmHg 74%
    13:00 +5°C° 0.2 mm 2 mps 720 mmHg 73%
    14:00 +5°C° 0.2 mm 2 mps 720 mmHg 72%
    15:00 +5°C° 0.1 mm 2 mps 720 mmHg 74%
    16:00 +4°C° 0.1 mm 2 mps 720 mmHg 75%
    17:00 +4°C° 0.1 mm 2 mps 721 mmHg 77%
    18:00 +4°C° 0 mm 1 mps 721 mmHg 78%
    19:00 +4°C° 0 mm 1 mps 721 mmHg 79%
    20:00 +3°C° 0 mm 1 mps 721 mmHg 80%
    21:00 +3°C° 0 mm 1 mps 721 mmHg 79%
    22:00 +3°C° 0 mm 1 mps 721 mmHg 78%
    23:00 +1°C° 0 mm 2 mps 721 mmHg 77%

    21 December, Friday

    Time Temperature Precipitation Wind Pressure Humidity
    00:00 +1°C° 0 mm 2 mps 721 mmHg 76%
    01:00 +1°C° 0 mm 2 mps 720 mmHg 74%
    02:00 +1°C° 0 mm 2 mps 720 mmHg 73%
    03:00 +1°C° 0 mm 2 mps 720 mmHg 71%
    04:00 +1°C° 0 mm 2 mps 720 mmHg 70%
    05:00 +1°C° 0 mm 2 mps 719 mmHg 69%
    06:00 +1°C° 0 mm 2 mps 719 mmHg 68%
    07:00 +1°C° 0 mm 2 mps 719 mmHg 67%
    08:00 +1°C° 0 mm 2 mps 719 mmHg 66%
    09:00 +2°C° 0 mm 2 mps 718 mmHg 62%
    10:00 +4°C° 0 mm 2 mps 717 mmHg 58%
    11:00 +5°C° 0 mm 2 mps 717 mmHg 54%
    12:00 +6°C° 0 mm 2 mps 716 mmHg 52%
    13:00 +7°C° 0 mm 2 mps 715 mmHg 50%
    14:00 +7°C° 0 mm 2 mps 715 mmHg 48%
    15:00 +7°C° 0 mm 1 mps 715 mmHg 49%
    16:00 +6°C° 0 mm 1 mps 714 mmHg 51%
    17:00 +5°C° 0 mm 1 mps 714 mmHg 52%
    18:00 +5°C° 0 mm 1 mps 714 mmHg 51%
    19:00 +5°C° 0 mm 1 mps 714 mmHg 50%
    20:00 +5°C° 0 mm 1 mps 714 mmHg 49%
    21:00 +5°C° 0 mm 1 mps 714 mmHg 50%
    22:00 +5°C° 0 mm 1 mps 713 mmHg 50%
    23:00 +5°C° 0 mm 1 mps 713 mmHg 51%

    22 December, Saturday

    Time Temperature Precipitation Wind Pressure Humidity
    00:00 +5°C° 0 mm 1 mps 712 mmHg 53%
    01:00 +5°C° 0 mm 1 mps 712 mmHg 56%
    02:00 +5°C° 0 mm 1 mps 712 mmHg 58%
    03:00 +5°C° 0 mm 1 mps 712 mmHg 59%
    04:00 +5°C° 0 mm 1 mps 712 mmHg 61%
    05:00 +5°C° 0 mm 1 mps 711 mmHg 63%
    06:00 +5°C° 0.1 mm 1 mps 712 mmHg 63%
    07:00 +5°C° 0.1 mm 1 mps 712 mmHg 63%
    08:00 +4°C° 0.1 mm 0 mps 712 mmHg 63%
    09:00 +6°C° 0.1 mm 1 mps 712 mmHg 61%
    10:00 +7°C° 0.1 mm 1 mps 712 mmHg 58%
    11:00 +8°C° 0.1 mm 1 mps 712 mmHg 56%
    12:00 +8°C° 0.1 mm 1 mps 712 mmHg 55%
    13:00 +9°C° 0.1 mm 1 mps 712 mmHg 54%
    14:00 +9°C° 0.1 mm 1 mps 712 mmHg 53%
    15:00 +8°C° 0.1 mm 1 mps 712 mmHg 54%
    16:00 +8°C° 0.1 mm 1 mps 712 mmHg 56%
    17:00 +7°C° 0.1 mm 1 mps 712 mmHg 57%
    18:00 +7°C° 0.1 mm 1 mps 712 mmHg 58%
    19:00 +7°C° 0.1 mm 1 mps 712 mmHg 59%
    20:00 +7°C° 0.1 mm 1 mps 713 mmHg 59%
    21:00 +7°C° 0.1 mm 1 mps 712 mmHg 60%
    22:00 +6°C° 0.1 mm 1 mps 712 mmHg 61%
    23:00 +6°C° 0.1 mm 1 mps 712 mmHg 62%

    23 December, Sunday

    Time Temperature Precipitation Wind Pressure Humidity
    00:00 +6°C° 0.1 mm 1 mps 712 mmHg 63%
    01:00 +6°C° 0.1 mm 1 mps 712 mmHg 63%
    02:00 +4°C° 0.1 mm 0 mps 712 mmHg 64%
    03:00 +4°C° 0 mm 0 mps 711 mmHg 64%
    04:00 +4°C° 0 mm 0 mps 711 mmHg 64%
    05:00 +4°C° 0 mm 0 mps 711 mmHg 65%
    06:00 +4°C° 0.1 mm 0 mps 712 mmHg 65%
    07:00 +4°C° 0.1 mm 0 mps 712 mmHg 65%
    08:00 +4°C° 0.1 mm 0 mps 712 mmHg 66%
    09:00 +5°C° 0.1 mm 0 mps 712 mmHg 64%
    10:00 +7°C° 0.1 mm 1 mps 712 mmHg 61%
    11:00 +8°C° 0.1 mm 1 mps 713 mmHg 59%
    12:00 +8°C° 0.1 mm 1 mps 712 mmHg 59%
    13:00 +8°C° 0.1 mm 1 mps 712 mmHg 58%
    14:00 +9°C° 0.1 mm 1 mps 712 mmHg 58%
    15:00 +8°C° 0.1 mm 1 mps 713 mmHg 60%
    16:00 +8°C° 0.1 mm 1 mps 713 mmHg 63%
    17:00 +7°C° 0.1 mm 1 mps 713 mmHg 65%
    18:00 +7°C° 0.1 mm 1 mps 713 mmHg 66%
    19:00 +6°C° 0.1 mm 1 mps 713 mmHg 67%
    20:00 +6°C° 0.1 mm 1 mps 714 mmHg 67%
    21:00 +6°C° 0.1 mm 1 mps 714 mmHg 68%
    22:00 +6°C° 0.1 mm 1 mps 714 mmHg 69%
    23:00 +5°C° 0.1 mm 1 mps 714 mmHg 70%
    Show more